• In Czech Republic
  • List of Countries
  • For 7 days
  • Water Temperature
  • Satellite Maps
  • Weather Map
  • Weather Widgets
  • user-avatar
    Login

    Hourly Weather Orlovka

    Today, 16 July, Monday

    Time Temperature Precipitation Wind Pressure Humidity
    00:00 +18°C° 0 mm 2 mps 736 mmHg 96%
    01:00 +18°C° 0 mm 2 mps 736 mmHg 96%
    02:00 +18°C° 0 mm 2 mps 736 mmHg 97%
    03:00 +18°C° 0 mm 2 mps 736 mmHg 96%
    04:00 +18°C° 0 mm 3 mps 736 mmHg 96%
    05:00 +18°C° 0 mm 3 mps 736 mmHg 96%
    06:00 +20°C° 0.1 mm 3 mps 736 mmHg 92%
    07:00 +21°C° 0.1 mm 3 mps 736 mmHg 89%
    08:00 +22°C° 0.1 mm 4 mps 736 mmHg 85%
    09:00 +23°C° 0.8 mm 4 mps 736 mmHg 82%
    10:00 +25°C° 0.8 mm 4 mps 736 mmHg 79%
    11:00 +26°C° 0.8 mm 4 mps 736 mmHg 76%
    12:00 +27°C° 0.3 mm 4 mps 736 mmHg 73%
    13:00 +27°C° 0.3 mm 4 mps 736 mmHg 70%
    14:00 +28°C° 0.3 mm 4 mps 736 mmHg 67%
    15:00 +27°C° 0.4 mm 4 mps 736 mmHg 71%
    16:00 +27°C° 0.4 mm 4 mps 736 mmHg 74%
    17:00 +26°C° 0.4 mm 4 mps 735 mmHg 78%
    18:00 +25°C° 0.2 mm 4 mps 735 mmHg 81%
    19:00 +23°C° 0.2 mm 4 mps 735 mmHg 85%
    20:00 +21°C° 0.2 mm 3 mps 735 mmHg 89%
    21:00 +21°C° 0 mm 3 mps 735 mmHg 89%
    22:00 +20°C° 0 mm 3 mps 735 mmHg 90%
    23:00 +20°C° 0 mm 3 mps 735 mmHg 90%

    Tomorrow, 17 July, Tuesday

    Time Temperature Precipitation Wind Pressure Humidity
    00:00 +19°C° 0 mm 3 mps 735 mmHg 91%
    01:00 +19°C° 0 mm 3 mps 735 mmHg 92%
    02:00 +19°C° 0 mm 3 mps 735 mmHg 93%
    03:00 +19°C° 0 mm 4 mps 735 mmHg 92%
    04:00 +19°C° 0 mm 4 mps 735 mmHg 92%
    05:00 +19°C° 0 mm 4 mps 735 mmHg 92%
    06:00 +20°C° 0 mm 4 mps 735 mmHg 86%
    07:00 +22°C° 0 mm 5 mps 735 mmHg 80%
    08:00 +25°C° 0 mm 5 mps 735 mmHg 75%
    09:00 +26°C° 0 mm 5 mps 734 mmHg 71%
    10:00 +27°C° 0 mm 6 mps 734 mmHg 66%
    11:00 +28°C° 0 mm 6 mps 734 mmHg 62%
    12:00 +28°C° 0.1 mm 6 mps 734 mmHg 62%
    13:00 +28°C° 0.1 mm 6 mps 733 mmHg 63%
    14:00 +28°C° 0.1 mm 6 mps 733 mmHg 63%
    15:00 +27°C° 0.6 mm 6 mps 733 mmHg 70%
    16:00 +26°C° 0.6 mm 5 mps 733 mmHg 76%
    17:00 +25°C° 0.6 mm 5 mps 733 mmHg 82%
    18:00 +25°C° 0.2 mm 4 mps 733 mmHg 85%
    19:00 +23°C° 0.2 mm 4 mps 733 mmHg 87%
    20:00 +22°C° 0.2 mm 4 mps 733 mmHg 89%
    21:00 +21°C° 0.1 mm 4 mps 733 mmHg 91%
    22:00 +21°C° 0.1 mm 4 mps 732 mmHg 92%
    23:00 +20°C° 0.1 mm 4 mps 732 mmHg 94%

    Day after tomorrow, 18 July, Wednesday

    Time Temperature Precipitation Wind Pressure Humidity
    00:00 +20°C° 0 mm 4 mps 732 mmHg 95%
    01:00 +20°C° 0 mm 4 mps 732 mmHg 96%
    02:00 +20°C° 0 mm 4 mps 732 mmHg 97%
    03:00 +20°C° 0 mm 4 mps 732 mmHg 96%
    04:00 +20°C° 0 mm 4 mps 732 mmHg 96%
    05:00 +20°C° 0 mm 4 mps 732 mmHg 95%
    06:00 +20°C° 0 mm 5 mps 732 mmHg 92%
    07:00 +21°C° 0 mm 5 mps 732 mmHg 89%
    08:00 +22°C° 0 mm 5 mps 732 mmHg 86%
    09:00 +23°C° 0 mm 6 mps 732 mmHg 79%
    10:00 +24°C° 0 mm 6 mps 732 mmHg 72%
    11:00 +27°C° 0 mm 6 mps 732 mmHg 65%
    12:00 +26°C° 0.4 mm 6 mps 732 mmHg 68%
    13:00 +26°C° 0.4 mm 6 mps 732 mmHg 71%
    14:00 +26°C° 0.4 mm 6 mps 732 mmHg 73%
    15:00 +25°C° 0.5 mm 5 mps 732 mmHg 78%
    16:00 +23°C° 0.5 mm 5 mps 732 mmHg 83%
    17:00 +22°C° 0.5 mm 5 mps 732 mmHg 88%
    18:00 +21°C° 0.1 mm 4 mps 732 mmHg 89%
    19:00 +21°C° 0.1 mm 4 mps 732 mmHg 91%
    20:00 +20°C° 0.1 mm 4 mps 732 mmHg 92%
    21:00 +19°C° 0 mm 4 mps 732 mmHg 93%
    22:00 +19°C° 0 mm 4 mps 732 mmHg 94%
    23:00 +19°C° 0 mm 4 mps 732 mmHg 95%

    19 July, Thursday

    Time Temperature Precipitation Wind Pressure Humidity
    00:00 +19°C° 0.1 mm 4 mps 732 mmHg 95%
    01:00 +18°C° 0.1 mm 4 mps 732 mmHg 95%
    02:00 +18°C° 0.1 mm 4 mps 732 mmHg 95%
    03:00 +18°C° 0.1 mm 4 mps 732 mmHg 95%
    04:00 +18°C° 0.1 mm 4 mps 732 mmHg 96%
    05:00 +18°C° 0.1 mm 4 mps 732 mmHg 96%
    06:00 +18°C° 0.2 mm 4 mps 732 mmHg 96%
    07:00 +18°C° 0.2 mm 4 mps 732 mmHg 96%
    08:00 +18°C° 0.2 mm 4 mps 732 mmHg 95%
    09:00 +19°C° 0.1 mm 4 mps 732 mmHg 94%
    10:00 +20°C° 0.1 mm 4 mps 732 mmHg 93%
    11:00 +20°C° 0.1 mm 4 mps 732 mmHg 91%
    12:00 +21°C° 0.4 mm 4 mps 733 mmHg 88%
    13:00 +22°C° 0.4 mm 3 mps 733 mmHg 85%
    14:00 +24°C° 0.4 mm 3 mps 733 mmHg 81%
    15:00 +24°C° 0.5 mm 3 mps 733 mmHg 83%
    16:00 +24°C° 0.5 mm 3 mps 733 mmHg 85%
    17:00 +24°C° 0.5 mm 3 mps 733 mmHg 86%
    18:00 +22°C° 0.5 mm 3 mps 733 mmHg 89%
    19:00 +21°C° 0.5 mm 3 mps 732 mmHg 92%
    20:00 +20°C° 0.5 mm 3 mps 732 mmHg 95%
    21:00 +20°C° 0.3 mm 2 mps 732 mmHg 95%
    22:00 +19°C° 0.3 mm 2 mps 732 mmHg 96%
    23:00 +19°C° 0.3 mm 2 mps 732 mmHg 97%

    20 July, Friday

    Time Temperature Precipitation Wind Pressure Humidity
    00:00 +19°C° 0.2 mm 2 mps 732 mmHg 97%
    01:00 +18°C° 0.2 mm 2 mps 732 mmHg 98%
    02:00 +18°C° 0.2 mm 2 mps 732 mmHg 98%
    03:00 +18°C° 0 mm 2 mps 732 mmHg 98%
    04:00 +18°C° 0 mm 2 mps 732 mmHg 98%
    05:00 +18°C° 0 mm 2 mps 733 mmHg 97%
    06:00 +19°C° 0 mm 2 mps 733 mmHg 94%
    07:00 +21°C° 0 mm 3 mps 733 mmHg 90%
    08:00 +22°C° 0 mm 3 mps 733 mmHg 86%
    09:00 +24°C° 0.9 mm 3 mps 733 mmHg 85%
    10:00 +24°C° 0.9 mm 3 mps 733 mmHg 85%
    11:00 +25°C° 0.9 mm 3 mps 733 mmHg 84%
    12:00 +25°C° 1.5 mm 3 mps 733 mmHg 84%
    13:00 +25°C° 1.5 mm 3 mps 733 mmHg 83%
    14:00 +25°C° 1.5 mm 3 mps 733 mmHg 83%
    15:00 +25°C° 1.7 mm 3 mps 732 mmHg 85%
    16:00 +25°C° 1.7 mm 3 mps 732 mmHg 87%
    17:00 +24°C° 1.7 mm 3 mps 732 mmHg 89%
    18:00 +22°C° 0.1 mm 3 mps 732 mmHg 91%
    19:00 +22°C° 0.1 mm 3 mps 732 mmHg 93%
    20:00 +21°C° 0.1 mm 2 mps 732 mmHg 95%
    21:00 +20°C° 0.3 mm 2 mps 732 mmHg 96%
    22:00 +20°C° 0.3 mm 2 mps 732 mmHg 97%
    23:00 +19°C° 0.3 mm 2 mps 732 mmHg 97%

    21 July, Saturday

    Time Temperature Precipitation Wind Pressure Humidity
    00:00 +19°C° 0 mm 2 mps 732 mmHg 97%
    01:00 +18°C° 0 mm 2 mps 732 mmHg 98%
    02:00 +18°C° 0 mm 2 mps 733 mmHg 98%
    03:00 +19°C° 0 mm 1 mps 733 mmHg 98%
    04:00 +20°C° 0 mm 1 mps 733 mmHg 98%
    05:00 +20°C° 0 mm 1 mps 733 mmHg 98%
    06:00 +21°C° 0 mm 1 mps 733 mmHg 94%
    07:00 +22°C° 0 mm 1 mps 733 mmHg 91%
    08:00 +24°C° 0 mm 1 mps 733 mmHg 87%
    09:00 +25°C° 0.7 mm 1 mps 733 mmHg 85%
    10:00 +25°C° 0.7 mm 1 mps 733 mmHg 82%
    11:00 +26°C° 0.7 mm 1 mps 733 mmHg 79%
    12:00 +27°C° 1.1 mm 1 mps 733 mmHg 78%
    13:00 +27°C° 1.1 mm 1 mps 733 mmHg 77%
    14:00 +27°C° 1.1 mm 1 mps 733 mmHg 76%
    15:00 +27°C° 1.1 mm 1 mps 733 mmHg 79%
    16:00 +27°C° 1.1 mm 1 mps 733 mmHg 81%
    17:00 +26°C° 1.1 mm 1 mps 733 mmHg 84%
    18:00 +25°C° 0.5 mm 1 mps 733 mmHg 87%
    19:00 +24°C° 0.5 mm 1 mps 733 mmHg 90%
    20:00 +23°C° 0.5 mm 1 mps 733 mmHg 93%
    21:00 +22°C° 0.5 mm 1 mps 733 mmHg 94%
    22:00 +22°C° 0.5 mm 1 mps 733 mmHg 95%
    23:00 +21°C° 0.5 mm 1 mps 733 mmHg 96%
    Show more